#timestamp,LO_Frequency,Hit,StdDev 
1562292015.6,286047004.6,N
1562292035.5,286047002.3,N
1562292055.3,286047002.9,N
1562292075.1,286047006.0,N
1562292095.9,286047010.7,Y
1562292115.7,286047008.9,P
1562292135.6,286047003.6,N
1562292155.4,286047003.8,N
1562292175.2,286047006.8,Y
1562292195.1,286047001.0,P
1562292196.0,286047001.0,N
1562292215.8,286046994.9,N
1562292235.7,286046992.8,N
1562292255.5,286046987.8,N
1562292275.4,286046986.8,N
1562292295.2,286046985.2,N
1562292315.0,286046984.1,N
1562292315.9,286046984.1,N
1562292335.8,286046988.3,N
1562292355.6,286046990.0,N
1562292375.4,286046988.5,N
1562292395.3,286046991.7,N
1562292415.1,286046992.5,N
1562292435.9,286046988.8,N
1562292455.7,286046988.6,N
1562292475.5,286046989.9,N
1562292495.4,286046989.5,N
1562292515.2,286046991.5,N
1562292535.0,286046989.3,N
1562292535.9,286046989.3,N
1562292555.8,286046988.4,N
1562292575.6,286046991.3,N
1562292595.5,286046991.8,N
1562292615.3,286046996.0,N
1562292635.1,286047000.7,N
1562292655.9,286047002.5,N
1562292675.7,286047000.0,N
1562292695.6,286047000.3,N
1562292715.4,286047002.8,N
1562292735.2,286047002.7,N
1562292755.1,286047001.7,N
1562292756.0,286047001.7,N
1562292775.8,286047001.0,N
1562292795.6,286047000.0,N
1562292815.5,286047001.8,N
1562292835.3,286047006.1,N
1562292855.2,286047012.4,N
1562292875.9,286047014.7,N
1562292895.7,286047017.0,N
1562292915.6,286047017.4,N
1562292935.4,286047019.7,N
1562292955.2,286047019.9,N
1562292975.1,286047018.7,N
1562292976.0,286047018.7,N
1562292995.8,286047017.8,N
1562293015.7,286047018.9,N
1562293035.5,286047018.8,N
1562293055.3,286047016.2,N
1562293075.2,286047020.0,N
1562293095.0,286047019.9,N
1562293095.9,286047019.9,N
1562293115.7,286047017.7,N
1562293135.6,286047021.6,N
1562293155.4,286047017.7,N
1562293175.3,286047014.1,N
1562293195.1,286047013.4,N
1562293215.9,286047011.6,N
1562293235.7,286047012.2,N
1562293255.6,286047011.8,N
1562293275.4,286047013.4,N
1562293295.2,286047018.4,N
1562293315.1,286047019.1,Y
1562293316.0,286047019.1,P
1562293335.8,286047007.5,P
1562293355.7,286047006.5,N
1562293375.5,286047007.6,N
1562293395.3,286047006.0,N
1562293415.2,286047003.8,N
1562293435.0,286047000.8,N
1562293435.9,286047000.8,N
1562293455.8,286046997.0,N
1562293475.6,286046999.0,N
1562293495.4,286046999.1,N
1562293515.3,286046996.5,N
1562293535.1,286046999.4,N
1562293555.9,286046998.5,N
1562293575.7,286047000.2,N
1562293595.5,286046999.8,N
1562293615.4,286047001.5,N
1562293635.2,286047003.2,N
1562293655.0,286047002.9,N
1562293656.0,286047002.9,N
1562293675.8,286047005.7,N
1562293695.6,286047003.7,N
1562293715.5,286047005.4,N
1562293735.3,286047004.7,N
1562293755.1,286047004.6,N
1562293775.9,286047009.0,N
1562293795.7,286047009.5,N
1562293815.6,286047013.7,N
1562293835.4,286047014.7,N
1562293855.3,286047017.6,Y
1562293875.1,286047015.4,P
1562293876.0,286047015.4,N
1562293895.8,286047015.6,P
1562293915.7,286047015.1,Y
1562293935.5,286047004.1,P
1562293955.3,286047005.8,N
1562293975.2,286047006.5,N
1562293995.0,286047008.5,N
1562293995.9,286047008.5,N
1562294015.8,286047009.2,Y
1562294035.6,286047002.1,P
1562294055.4,286047005.9,N
1562294075.3,286047005.3,N
1562294095.1,286047005.4,N
1562294115.9,286047006.2,Y
1562294135.7,286047002.2,P
1562294155.6,286047000.9,N
1562294175.4,286047001.9,N
1562294195.2,286047001.8,N
1562294215.1,286046999.9,N
1562294216.0,286046999.9,N
1562294235.8,286047002.6,N
1562294255.7,286047002.0,N
1562294275.5,286047003.0,N
1562294295.3,286047004.6,Y
1562294315.2,286047009.1,P
1562294335.9,286047010.8,P
1562294355.7,286047007.9,N
1562294375.6,286047010.6,Y
1562294395.4,286047005.5,P
1562294415.3,286047005.4,P
1562294435.1,286047003.8,P
1562294436.0,286047003.8,N
1562294455.8,286047001.5,N
1562294475.7,286047003.0,N
1562294495.5,286047003.3,N
1562294515.4,286047003.8,N
1562294535.2,286047004.0,N
1562294555.0,286047003.6,N
1562294555.9,286047003.6,N
1562294575.8,286047003.7,N
1562294595.6,286047002.3,N
1562294615.4,286047002.0,N
1562294635.3,286047003.6,N
1562294655.1,286047005.1,Y
1562294675.9,286047003.3,P
1562294695.7,286047002.5,P
1562294715.5,286047003.5,P
1562294735.4,286047003.8,Y
1562294755.2,286046995.3,P
1562294775.1,286046997.5,N
1562294776.0,286046997.5,N
1562294795.8,286046997.6,N
1562294815.6,286046997.5,N
1562294835.5,286046997.4,N
1562294855.3,286046997.1,N
1562294875.1,286046999.6,N
1562294895.9,286047002.6,N
1562294915.7,286047001.3,N
1562294935.6,286047003.8,N
1562294955.4,286047001.7,N
1562294975.2,286047002.8,N
1562294995.1,286047002.2,N
1562294996.0,286047002.2,N
1562295015.8,286046998.6,N
1562295035.7,286046995.1,N
1562295055.5,286046994.8,N
1562295075.3,286046992.7,N
1562295095.2,286046993.1,N
1562295115.0,286046993.1,N
1562295115.9,286046993.1,N
1562295135.7,286046990.2,N
1562295155.6,286046992.8,N
1562295175.4,286046989.5,N
1562295195.3,286046991.1,N
1562295215.1,286046992.3,N
1562295235.8,286046994.4,N
1562295255.7,286046990.4,N
1562295275.5,286046991.3,N
1562295295.4,286046994.6,N
1562295315.2,286046994.3,N
1562295335.0,286046990.5,N
1562295335.9,286046990.5,N
1562295355.8,286046990.6,N
1562295375.6,286046993.0,N
1562295395.5,286046996.4,N
1562295415.3,286046996.1,N
1562295435.1,286046998.8,N
1562295455.9,286047002.0,N
1562295475.7,286047004.5,N
1562295495.5,286047005.1,N
1562295515.4,286047008.7,N
1562295535.2,286047009.7,N
1562295555.1,286047009.7,N
1562295556.0,286047009.7,N
1562295575.8,286047013.5,N
1562295595.6,286047012.4,N
